Weather History for KOLE - October, 2012

Change the Weather History Date:

Monday, October 29, 2012

  Actual Average (KBFD) Record (KBFD)
Temperature  
Mean Temperature 38 °F 43 °F  
Max Temperature 41 °F 52 °F 72 °F (1999)
Min Temperature 35 °F 33 °F 10 °F (1965)
Degree Days  
Heating Degree Days 27 18  
Month to date heating degree days 400  
Since 1 July heating degree days 817  
Cooling Degree Days 0 0  
Month to date cooling degree days 0  
Year to date cooling degree days 192  
Moisture  
Dew Point 38 °F    
Average Humidity 100    
Maximum Humidity 100    
Minimum Humidity 100    
Precipitation  
Precipitation 0.00 in 0.10 in 1.63 in (1973)
Month to date precipitation 3.21  
Year to date precipitation 37.08  
Sea Level Pressure  
Sea Level Pressure 29.60 in    
Wind  
Wind Speed 9 mph ()    
Max Wind Speed 23 mph    
Max Gust Speed 40 mph    
Visibility 3.7 miles    
Events Fog , Rain    
T = Trace of Precipitation, MM = Missing Value Source: Averaged Metar Reports

Daily Weather History Graph

Daily Weather History Graph

Search for Another Location

Airport or City:

Trip Planner

Search our weather history database for the weather conditions in past years. The results will help you decide how hot, cold, wet, or windy it might be!

Date:

Astronomy

Oct. 29, 2012 Rise Set
Actual Time 7:43 AM EDT 6:10 PM EDT
Civil Twilight 7:14 AM EDT 6:39 PM EDT
Nautical Twilight 6:41 AM EDT 7:12 PM EDT
Astronomical Twilight 6:08 AM EDT 7:44 PM EDT
Moon 6:00 PM EDT (10/29) 7:32 AM EDT (10/29)
Length of Visible Light 11h 24m
Length of Day
10h 26m
Full, 100% of the Moon is Illuminated
Oct 29
Full
Oct 29
Full
Nov 6
Last Quarter
Nov 13
New
Nov 20
First Quarter

Hourly Weather History & Observations

Time (EDT) Temp. Windchill Dew Point Humidity Pressure Visibility Wind Dir Wind Speed Gust Speed Precip Events Conditions
12:15 AM 37.4 °F 31.4 °F 37.4 °F 100% 29.81 in 7.0 mi North 8.1 mph - N/A Rain Light Rain
12:35 AM 37.4 °F 32.1 °F 37.4 °F 100% 29.81 in 7.0 mi North 6.9 mph - N/A   Drizzle
12:55 AM 37.4 °F 32.1 °F 37.4 °F 100% 29.81 in 10.0 mi North 6.9 mph - N/A   Drizzle
1:15 AM 37.4 °F 32.8 °F 37.4 °F 100% 29.81 in 7.0 mi North 5.8 mph - N/A Rain Rain
1:35 AM 37.4 °F 33.8 °F 37.4 °F 100% 29.82 in 5.0 mi North 4.6 mph - N/A   Drizzle
1:55 AM 37.4 °F 32.8 °F 37.4 °F 100% 29.80 in 1.8 mi North 5.8 mph - N/A Rain Light Rain
2:15 AM 37.4 °F 32.1 °F 37.4 °F 100% 29.78 in 1.0 mi NNW 6.9 mph - N/A   Drizzle
2:35 AM 37.4 °F 32.8 °F 37.4 °F 100% 29.78 in 1.5 mi North 5.8 mph - N/A   Drizzle
2:55 AM 37.4 °F 32.8 °F 37.4 °F 100% 29.79 in 3.0 mi North 5.8 mph - N/A   Drizzle
3:15 AM 37.4 °F 32.1 °F 37.4 °F 100% 29.78 in 2.5 mi North 6.9 mph - N/A   Drizzle
3:35 AM 37.4 °F 32.1 °F 37.4 °F 100% 29.77 in 4.0 mi North 6.9 mph - N/A   Drizzle
3:55 AM 37.4 °F 32.8 °F 37.4 °F 100% 29.78 in 7.0 mi NNE 5.8 mph - N/A   Drizzle
4:15 AM 37.4 °F 32.8 °F 37.4 °F 100% 29.77 in 7.0 mi North 5.8 mph - N/A   Drizzle
4:35 AM 37.4 °F 32.1 °F 37.4 °F 100% 29.76 in 3.0 mi North 6.9 mph - N/A   Drizzle
4:55 AM 37.4 °F 30.3 °F 37.4 °F 100% 29.75 in 2.0 mi North 10.4 mph 18.4 mph N/A Rain Rain
5:15 AM 39.2 °F 34.2 °F 39.2 °F 100% 29.76 in 1.5 mi North 6.9 mph 16.1 mph N/A Rain Light Rain
5:35 AM 39.2 °F 32.5 °F 39.2 °F 100% 29.76 in 1.2 mi North 10.4 mph - N/A Rain Light Rain
5:55 AM 39.2 °F 32.5 °F 39.2 °F 100% 29.75 in 2.0 mi North 10.4 mph - N/A   Light Drizzle
7:15 AM 37.4 °F 31.4 °F 37.4 °F 100% 29.74 in 7.0 mi North 8.1 mph - N/A   Overcast
7:35 AM 37.4 °F 32.1 °F 37.4 °F 100% 29.73 in 7.0 mi North 6.9 mph - N/A   Overcast
7:55 AM 37.4 °F 32.1 °F 37.4 °F 100% 29.72 in 0.8 mi North 6.9 mph - N/A   Overcast
8:15 AM 37.4 °F 30.3 °F 37.4 °F 100% 29.73 in 0.2 mi North 10.4 mph 18.4 mph N/A Fog Fog
8:35 AM 37.4 °F 32.1 °F 37.4 °F 100% 29.73 in 0.2 mi North 6.9 mph - N/A Fog Fog
8:55 AM 37.4 °F 31.4 °F 37.4 °F 100% 29.73 in 0.2 mi North 8.1 mph 18.4 mph N/A Fog Fog
9:15 AM 37.4 °F 31.4 °F 37.4 °F 100% 29.72 in 0.5 mi North 8.1 mph 17.3 mph N/A Fog Fog
9:35 AM 37.4 °F 31.4 °F 37.4 °F 100% 29.72 in 1.2 mi North 8.1 mph - N/A Rain Light Rain
9:55 AM 37.4 °F 30.8 °F 37.4 °F 100% 29.71 in 4.0 mi North 9.2 mph - N/A Rain Light Rain
10:15 AM 39.2 °F 32.5 °F 39.2 °F 100% 29.70 in 7.0 mi NNW 10.4 mph 18.4 mph N/A Rain Light Rain
10:35 AM 39.2 °F 33.0 °F 39.2 °F 100% 29.69 in 10.0 mi North 9.2 mph - N/A Rain Light Rain
10:55 AM 39.2 °F 33.0 °F 39.2 °F 100% 29.67 in 7.0 mi NNW 9.2 mph 17.3 mph N/A Rain Rain
11:15 AM 39.2 °F 31.6 °F 39.2 °F 100% 29.67 in 5.0 mi North 12.7 mph 17.3 mph N/A Rain Rain
11:35 AM 39.2 °F 32.5 °F 39.2 °F 100% 29.67 in 7.0 mi North 10.4 mph 18.4 mph N/A Rain Light Rain
11:55 AM 39.2 °F 32.5 °F 39.2 °F 100% 29.66 in 10.0 mi NNW 10.4 mph - N/A Rain Light Rain
12:15 PM 39.2 °F 32.5 °F 39.2 °F 100% 29.65 in 10.0 mi North 10.4 mph 18.4 mph N/A Rain Light Rain
12:35 PM 39.2 °F 31.6 °F 39.2 °F 100% 29.62 in 7.0 mi North 12.7 mph 21.9 mph N/A   Light Drizzle
12:55 PM 39.2 °F 32.0 °F 39.2 °F 100% 29.61 in 3.0 mi North 11.5 mph 21.9 mph N/A   Overcast
1:15 PM 39.2 °F 31.6 °F 39.2 °F 100% 29.59 in 1.8 mi NNW 12.7 mph 18.4 mph N/A   Drizzle
1:35 PM 39.2 °F 32.0 °F 39.2 °F 100% 29.59 in 2.0 mi North 11.5 mph 21.9 mph N/A   Drizzle
1:55 PM 39.2 °F 30.5 °F 39.2 °F 100% 29.56 in 2.0 mi NNW 16.1 mph 24.2 mph N/A Rain Rain
2:15 PM 37.4 °F 28.5 °F 37.4 °F 100% 29.52 in 2.0 mi NNW 15.0 mph 25.3 mph N/A   Drizzle
2:35 PM 37.4 °F 29.3 °F 37.4 °F 100% 29.52 in 2.0 mi North 12.7 mph 23.0 mph N/A   Drizzle
2:55 PM 37.4 °F 27.5 °F 37.4 °F 100% 29.51 in 1.8 mi NNW 18.4 mph 28.8 mph N/A   Drizzle
3:15 PM 37.4 °F 27.8 °F 37.4 °F 100% 29.50 in 1.8 mi North 17.3 mph 25.3 mph N/A Rain Rain
3:35 PM 37.4 °F 27.8 °F 37.4 °F 100% 29.48 in 2.0 mi North 17.3 mph 27.6 mph N/A Rain Rain
3:55 PM 37.4 °F 29.8 °F 37.4 °F 100% 29.47 in 2.0 mi NNW 11.5 mph 31.1 mph N/A Rain Rain
4:15 PM 37.4 °F 28.5 °F 37.4 °F 100% 29.45 in 4.0 mi NNW 15.0 mph 29.9 mph N/A Rain Rain
4:35 PM 37.4 °F 27.2 °F 37.4 °F 100% 29.44 in 3.0 mi NNW 19.6 mph 28.8 mph N/A Rain Rain
4:55 PM 37.4 °F 28.2 °F 37.4 °F 100% 29.43 in 2.5 mi North 16.1 mph 31.1 mph N/A Rain Rain
5:15 PM 37.4 °F 26.9 °F 37.4 °F 100% 29.41 in 2.0 mi NNW 20.7 mph 27.6 mph N/A Rain Heavy Rain
5:35 PM 35.6 °F 24.5 °F 35.6 °F 100% 29.40 in 2.5 mi NNW 20.7 mph 28.8 mph N/A Rain Rain
5:55 PM 35.6 °F 24.8 °F 35.6 °F 100% 29.35 in 2.5 mi NNW 19.6 mph 28.8 mph N/A Rain Heavy Rain
6:15 PM 35.6 °F 25.5 °F 35.6 °F 100% 29.33 in 2.5 mi NNW 17.3 mph 34.5 mph N/A Rain Light Rain
6:35 PM 35.6 °F 25.2 °F 35.6 °F 100% 29.31 in 4.0 mi NNW 18.4 mph 33.4 mph N/A Rain Rain
6:55 PM 35.6 °F 24.5 °F 35.6 °F 100% 29.30 in 4.0 mi NNW 20.7 mph 35.7 mph N/A Rain Light Rain
7:15 PM 35.6 °F 26.6 °F 35.6 °F 100% 29.29 in 3.0 mi NNW 13.8 mph 31.1 mph N/A Rain Rain
7:35 PM 35.6 °F 24.2 °F 35.6 °F 100% 29.27 in 3.0 mi NNW 21.9 mph 33.4 mph N/A Rain Light Rain
7:55 PM 35.6 °F 24.5 °F 35.6 °F 100% 29.24 in 3.0 mi NNW 20.7 mph 33.4 mph N/A Rain Rain
8:15 PM 35.6 °F 24.5 °F 35.6 °F 100% 29.21 in 3.0 mi NW 20.7 mph 35.7 mph N/A Rain Rain
8:35 PM 35.6 °F 24.0 °F 35.6 °F 100% - 2.5 mi NNW 23.0 mph 40.3 mph N/A Rain Rain
11:35 PM 41.0 °F 32.8 °F 41.0 °F 100% 29.04 in 3.0 mi North 16.1 mph 29.9 mph N/A Rain Rain
11:55 PM 41.0 °F 32.8 °F 41.0 °F 100% 29.02 in 5.0 mi NNW 16.1 mph 26.5 mph N/A Rain Rain